916  
NZUS93 KARX 171510  
HRRWXR  
 
CURRENT HOURLY OBSERVATIONS ACROSS  
MUCH OF THE UPPER MISSISSIPPI VALLEY  
NATIONAL WEATHER SERVICE LA CROSSE WI  
900 AM CST SUN DEC 17 2017  
 
   
..SOUTHEAST MINNESOTA
 
 
 
CITY SKY/WX TMP DP RH WIND PRES REMARKS  
ROCHESTER FOG 25 24 96 E7 30.05F VSB 1/4 WCI 17  
ROCHESTER/MAYO CLOUDY 25 25 100 CALM 30.07S VSB 1  
WINONA CLOUDY 30 28 93 E8 30.11S WCI 23  
AUSTIN FOG 25 25 100 E3 30.04F VSB 1/2  
ALBERT LEA FOG 25 23 93 E5 30.05S VSB 1/4 WCI 19  
DODGE CENTER FOG 25 23 93 E5 30.05S VSB<1/4 WCI 19  
PRESTON FOG 25 23 95 E5 30.06S VSB 1/2 WCI 19  
OWATONNA FOG 25 23 93 E5 30.06R VSB 1 WCI 19  
FARIBAULT CLOUDY 25 21 86 CALM 30.07S FOG  

 
   
..ELSEWHERE IN MINNESOTA
 
 
 
CITY SKY/WX TMP DP RH WIND PRES REMARKS  
MINNEAPOLIS CLOUDY 24 23 96 CALM 30.10R FOG  
INTNL FALLS FOG 23 21 92 SW9 30.00R VSB 3/4 WCI 13  
DULUTH FOG 20 19 96 S6 30.05F VSB 1 WCI 12  
RED WING CLOUDY 27 21 80 SE3 30.10R FOG  
REDWOOD FALLS CLOUDY 26 23 88 N5 30.07S FOG WCI 20  
MANKATO PTCLDY 21 19 92 E5 30.08R WCI 15  
WORTHINGTON FOG 25 25 100 NE10 30.05R VSB 1 WCI 15  
FAIRMONT CLOUDY 24 22 91 NE7 30.06S FOG WCI 16  

 
   
..SOUTHWEST WISCONSIN
 
 
 
CITY SKY/WX TMP DP RH WIND PRES REMARKS  
LA CROSSE CLOUDY 30 27 88 SE5 30.10S WCI 25  
PRAIRIE DU CHI CLOUDY 32 28 85 NE7 30.07F FOG WCI 26  
BOSCOBEL CLOUDY 33 29 85 NE5 30.09S FOG WCI 29  
LONE ROCK CLOUDY 32 30 92 NE9 30.09S FOG WCI 24  
PLATTEVILLE CLOUDY 32 32 99 NE12 30.03F WCI 23  
FORT MC COY CLOUDY 27 26 98 E3 30.11S FOG  
MAUSTON-NEW LI CLOUDY 28 26 94 CALM 30.10S FOG  
VIROQUA CLOUDY 28 28 100 CALM 30.07S  
WIS DELLS CLOUDY 28 26 95 NE6 30.09S WCI 21  

 
   
..ELSEWHERE IN WISCONSIN
 
 
 
CITY SKY/WX TMP DP RH WIND PRES REMARKS  
MILWAUKEE CLOUDY 34 31 88 E9 30.10S FOG WCI 27  
MADISON CLOUDY 32 29 88 E7 30.09S FOG WCI 26  
GREEN BAY CLOUDY 26 22 84 NE7 30.14S WCI 18  
EAU CLAIRE CLOUDY 25 24 96 SE7 30.10R FOG WCI 17  
BLACK RVR FLS CLOUDY 28 27 97 CALM 30.10R FOG  
MEDFORD CLOUDY 23 22 96 E7 30.06F FOG WCI 14  
WAUSAU CLOUDY 23 22 96 SE7 30.09S FOG WCI 15  
WIS RAPIDS CLOUDY 25 22 88 E5 30.12R FOG WCI 19  
MARSHFIELD CLOUDY 24 23 96 E8 30.08R FOG WCI 15  
RICE LAKE FOG 25 24 99 CALM 30.09F VSB 1/4  

 
   
..NORTHEAST IOWA
 
 
 
CITY SKY/WX TMP DP RH WIND PRES REMARKS  
WATERLOO CLOUDY 30 28 92 NE10 30.03S FOG WCI 21  
DUBUQUE CLOUDY 31 30 96 NE8 30.03F FOG WCI 23  
DECORAH FOG 28 28 100 E7 30.04F VSB 3/4 WCI 21  
MASON CITY FOG 27 26 96 E8 30.04F VSB 1/2 WCI 19  
CHARLES CITY FOG 28 28 100 NE7 30.04S VSB 1/2 WCI 21  
OELWEIN CLOUDY 30 30 100 E14 30.02F FOG WCI 20  

 
   
..ELSEWHERE IN IOWA
 
 
 
CITY SKY/WX TMP DP RH WIND PRES REMARKS  
DES MOINES CLOUDY 32 25 75 CALM 30.01R  
IOWA CITY CLOUDY 33 29 85 NE6 30.04R FOG WCI 28  
FORT DODGE FOG 24 23 96 N8 30.03F VSB 1/4 WCI 15  
MARSHALLTOWN CLOUDY 30 28 92 E8 30.01S FOG WCI 22  
CEDAR RAPIDS CLOUDY 31 29 92 E7 30.01S FOG WCI 24  

 
   
..NORTHERN ILLINOIS
 
 
 
CITY SKY/WX TMP DP RH WIND PRES REMARKS  
CHICAGO-OHARE CLOUDY 37 33 85 NE9 30.05F FOG WCI 30  
CHICAGO-MIDWAY CLOUDY 38 35 89 N6 30.04F WCI 33  
MOLINE CLOUDY 33 30 88 E6 30.03R FOG WCI 28  
ROCKFORD CLOUDY 34 31 88 E8 30.07S FOG WCI 27  
PEORIA CLOUDY 41 31 67 S7 30.04R  

 
 
NOTE: "FAIR" INDICATES FEW OR NO CLOUDS BELOW 12,000 FEET WITH NO  
SIGNIFICANT WEATHER AND/OR OBSTRUCTIONS TO VISIBILITY. WIND  
SPEEDS ARE IN MILES-PER-HOUR.  
 
 
CLICK HERE TO GO TO PREVIOUS BULLETINS.

The Nexlab WI Page
The Nexlab IA Page
The Nexlab MN Page Main Text Page